Wind_Speed
32 32 32 34 35 36 38 38 38 37 35 33 32 31 29 29 29 30 30 30 29 30 28 24 23 22 22 22 22 21 21 21 20 19 18 18 17 16 16 15 15 15 15
34 35 37 38 38 38 39 39 39 38 35 33 33 32 30 29 27 27 27 28 27 27 25 22 22 22 22 21 22 22 22 22 21 20 20 19 18 18 16 16 15 15 15
36 38 40 40 40 39 38 39 40 38 36 35 33 31 30 29 29 28 27 27 27 27 25 24 23 23 23 22 23 23 24 24 23 22 22 21 20 20 19 18 17 16 15
36 38 39 39 39 38 38 40 39 38 38 36 34 33 33 32 32 31 28 27 27 28 29 28 27 26 26 25 25 25 25 25 25 25 24 24 23 22 21 20 18 17 17
31 32 33 35 36 36 37 39 39 39 39 38 37 37 36 35 35 34 32 32 31 31 31 31 30 30 29 28 28 28 28 28 28 28 27 27 26 25 23 22 21 20 18
28 28 30 32 34 35 37 38 40 40 41 41 42 41 40 39 39 38 37 37 37 36 36 35 34 34 34 33 33 32 31 31 31 31 31 30 29 28 27 25 24 23 21
29 30 31 32 33 35 37 39 40 41 43 44 45 45 44 43 43 43 43 43 42 42 41 41 40 40 39 39 38 37 36 35 35 35 34 34 33 32 30 29 27 26 24
31 32 34 35 37 39 40 42 44 45 46 48 48 48 48 47 47 47 48 47 47 47 47 46 46 45 45 44 44 42 41 40 39 39 38 38 37 36 34 32 30 29 27
34 36 37 38 40 42 43 45 47 48 49 51 52 52 52 53 53 52 52 52 52 51 51 51 51 51 50 50 49 48 47 45 44 43 43 41 40 39 38 36 34 32 30
38 39 40 41 43 45 46 47 49 50 51 53 54 55 56 56 56 56 56 56 56 56 55 55 55 55 55 55 54 53 52 51 50 48 47 45 44 43 42 40 37 35 33
41 43 44 45 47 48 50 51 52 53 54 55 56 57 57 58 58 58 59 59 59 59 59 59 58 58 58 58 58 57 57 56 55 53 51 49 48 47 45 43 41 38 36
44 46 48 49 51 52 53 54 56 57 58 59 59 59 59 59 59 60 60 60 60 61 61 61 61 61 61 60 61 61 61 60 59 58 56 54 52 50 48 46 44 41 39
48 49 51 52 54 55 57 58 60 60 61 61 61 60 59 58 58 58 58 57 57 58 59 60 61 61 62 62 62 62 63 63 62 61 60 58 56 53 52 50 47 44 42
50 52 53 54 56 58 59 60 60 61 61 61 61 60 59 58 56 54 53 52 51 51 52 53 55 57 59 60 61 63 63 64 64 64 63 61 59 57 54 52 50 48 45
51 52 54 56 58 59 59 60 61 61 61 61 60 59 57 55 53 50 48 47 46 45 45 46 47 50 53 55 58 60 61 62 63 63 63 63 62 60 57 55 52 50 47
52 53 55 57 57 58 59 61 61 61 61 60 59 57 55 53 51 49 47 44 42 41 41 41 42 44 46 49 51 54 57 59 61 62 63 62 62 61 59 57 55 52 48
53 55 56 56 57 59 60 61 60 59 59 58 57 55 53 50 48 47 44 42 40 39 38 37 37 38 40 42 44 47 50 52 55 58 60 61 61 60 60 59 57 53 51
54 55 55 56 58 59 60 59 59 58 57 56 54 52 49 47 46 44 42 41 39 38 37 35 35 34 35 36 37 39 41 43 46 50 54 57 58 59 59 59 57 55 52
54 55 56 58 59 59 59 58 57 55 53 52 50 47 45 44 42 41 40 39 38 36 35 34 33 33 33 33 33 34 35 36 38 41 45 49 52 55 57 57 56 54 53
55 56 57 58 58 58 58 57 54 52 50 49 47 45 43 41 39 38 37 36 36 35 33 32 31 30 30 30 30 30 31 32 33 35 38 43 46 49 53 54 54 53 52
56 56 57 58 57 57 56 55 52 50 49 47 45 42 39 37 35 34 33 32 32 32 31 30 29 28 27 28 28 28 28 28 29 31 34 37 42 46 49 51 52 52 52
55 56 56 56 56 55 55 54 51 49 46 45 42 38 35 33 32 31 29 28 28 28 28 28 27 26 26 26 26 26 26 27 27 29 31 34 38 42 45 48 49 50 51
54 54 54 54 54 54 54 52 50 47 43 41 38 34 30 28 27 26 24 24 25 25 25 26 25 25 25 24 24 24 24 25 26 27 30 32 35 38 42 45 47 49 50
53 52 52 53 53 53 52 50 48 44 40 37 33 29 26 23 21 19 18 18 19 21 22 23 23 23 23 22 22 22 22 23 24 25 27 30 34 36 40 44 46 46 47
51 51 52 53 53 52 50 49 45 41 37 33 29 25 22 19 16 14 12 13 15 17 18 19 20 20 21 21 21 21 21 22 22 23 25 27 31 34 38 42 43 45 47
50 50 51 52 52 51 49 47 43 39 36 31 27 23 18 15 12 10 9 9 11 13 15 16 16 17 17 18 18 18 19 19 20 21 23 26 28 31 36 40 42 45 46
Wind_Direction
281 282 286 288 288 290 293 293 295 297 299 300 301 300 295 291 286 277 272 271 267 264 264 265 267 267 267 264 263 261 259 257 255 254 254 254 255 258 261 264 267 270 271
282 283 283 283 285 287 289 291 292 294 297 300 301 303 301 299 296 288 279 276 268 266 267 271 268 266 264 263 261 259 256 254 251 250 250 251 253 256 259 261 263 267 268
282 283 282 283 285 285 286 289 291 293 295 297 299 301 300 299 299 294 286 277 273 270 269 270 272 267 264 262 261 259 256 252 249 248 247 249 252 254 256 259 261 265 266
286 286 284 284 286 285 285 288 290 293 293 293 295 298 298 297 296 295 288 284 278 275 273 271 272 268 265 263 261 258 256 254 250 248 247 246 248 252 255 256 259 263 266
292 289 286 286 287 287 286 287 289 290 290 290 291 292 292 292 291 290 287 283 280 276 273 270 268 266 264 263 261 259 257 254 252 249 247 246 246 248 252 255 257 259 263
295 295 293 290 290 290 289 289 289 289 289 289 289 289 288 287 287 285 283 281 278 274 272 269 266 265 263 262 261 259 257 255 253 251 249 247 246 246 248 252 256 259 261
296 296 297 295 294 293 293 292 291 290 289 288 286 286 285 283 282 281 280 278 274 270 269 266 264 263 261 261 260 259 257 255 253 252 250 248 247 247 247 248 252 256 260
299 299 299 296 296 296 295 293 292 291 289 288 287 286 285 283 281 280 278 275 272 270 267 264 262 261 259 258 257 256 255 254 252 251 250 249 248 247 247 247 248 251 255
302 300 298 297 297 296 294 293 292 291 290 288 287 286 285 283 281 279 277 274 271 269 266 263 261 259 258 257 256 254 253 252 252 251 250 250 249 248 248 247 247 249 251
304 303 301 300 298 297 296 294 293 291 290 288 287 286 285 283 281 278 276 273 271 268 266 263 261 259 257 255 254 253 251 250 250 250 249 249 249 249 248 247 247 247 249
307 306 305 304 303 302 300 299 297 295 293 292 290 289 287 284 281 279 276 273 270 268 266 263 261 258 256 254 253 251 250 249 248 248 247 247 246 247 247 246 247 247 247
310 310 309 308 307 306 305 303 302 300 298 296 294 292 289 286 284 281 278 275 272 269 266 263 260 258 256 254 253 251 250 248 247 246 246 245 245 244 245 245 245 246 246
314 313 312 312 311 310 308 307 305 303 301 299 297 295 293 290 287 283 281 277 274 270 266 263 260 257 255 253 252 251 249 248 247 246 244 244 243 243 243 243 243 244 244
318 317 315 314 313 312 310 308 307 305 303 301 299 297 295 292 289 286 283 279 275 271 268 264 261 257 255 253 251 250 249 248 247 246 244 242 241 241 241 241 241 242 242
320 319 318 317 315 313 312 310 308 306 304 303 301 299 296 293 290 286 283 279 275 271 267 264 261 258 256 253 251 250 249 248 246 245 244 242 241 239 239 238 239 239 239
321 320 318 317 316 314 312 311 309 307 305 304 302 299 296 293 289 286 282 278 274 270 267 264 262 260 258 255 252 250 249 248 247 245 243 241 240 239 237 236 236 236 236
323 321 320 318 317 315 314 313 311 308 306 304 301 298 295 291 288 285 281 276 272 269 266 263 261 259 258 256 254 252 250 249 247 245 243 241 239 237 236 235 234 233 233
324 323 321 320 319 317 316 314 313 310 307 305 301 298 293 290 286 283 278 273 270 267 265 262 260 259 257 257 255 253 251 249 248 245 242 240 238 236 235 233 232 231 231
327 326 324 323 321 320 319 317 315 313 310 307 303 299 294 290 286 282 276 271 267 265 262 260 259 258 257 257 255 253 250 248 246 244 241 238 236 234 232 231 230 229 228
330 329 327 326 325 323 322 320 318 315 312 309 306 302 296 291 286 282 275 269 265 262 258 257 257 256 255 254 254 253 250 248 245 243 240 237 234 231 229 227 226 225 224
332 331 330 329 327 326 325 324 321 318 316 313 309 304 299 292 287 283 276 268 262 258 255 254 253 253 253 252 252 251 250 247 246 243 239 235 232 229 226 224 222 222 221
334 333 333 332 330 330 329 327 325 322 319 318 314 308 303 296 289 284 276 266 260 256 253 251 249 249 250 251 251 251 250 248 247 244 239 234 229 225 222 220 218 218 217
337 337 337 336 335 333 332 331 329 326 323 322 319 314 309 302 295 286 274 263 257 252 247 247 247 248 250 251 251 251 251 249 247 244 238 232 227 222 218 215 214 213 212
341 341 340 341 340 339 338 336 334 332 329 326 324 321 317 311 304 290 274 263 255 248 243 244 246 247 248 249 249 251 251 250 247 242 235 230 224 220 214 210 208 207 206
344 344 345 345 345 345 344 342 341 340 338 336 334 329 324 320 315 303 281 263 253 244 241 242 243 245 245 247 250 252 251 249 247 241 234 227 221 215 210 205 202 200 200
347 347 348 349 349 350 350 351 350 349 348 346 344 342 337 333 326 314 292 268 252 243 239 239 240 240 242 246 249 249 248 247 246 239 229 220 213 208 204 199 197 195 197
Height
5853 5851 5850 5848 5845 5841 5837 5834 5831 5826 5822 5820 5817 5813 5810 5809 5808 5807 5807 5807 5808 5810 5812 5812 5813 5814 5815 5816 5817 5817 5818 5819 5820 5821 5822 5822 5823 5824 5825 5826 5826 5827 5828
5847 5845 5843 5840 5837 5834 5830 5827 5824 5821 5818 5816 5813 5809 5806 5805 5803 5801 5801 5802 5803 5804 5805 5805 5806 5807 5808 5810 5810 5811 5812 5813 5814 5815 5816 5818 5819 5820 5820 5821 5822 5823 5823
5840 5837 5834 5831 5829 5825 5822 5820 5817 5814 5811 5809 5807 5804 5801 5799 5798 5796 5795 5796 5797 5797 5798 5798 5800 5801 5802 5803 5803 5804 5806 5807 5808 5809 5811 5812 5813 5814 5816 5816 5817 5818 5819
5832 5829 5826 5823 5820 5817 5815 5813 5809 5807 5804 5802 5800 5798 5796 5794 5792 5789 5788 5789 5789 5790 5791 5792 5792 5793 5794 5795 5796 5797 5799 5800 5801 5803 5805 5806 5807 5809 5810 5811 5812 5813 5814
5824 5820 5818 5815 5812 5809 5806 5804 5801 5799 5797 5794 5792 5790 5788 5786 5785 5783 5782 5782 5782 5782 5783 5783 5784 5785 5786 5787 5788 5790 5791 5792 5794 5796 5797 5799 5801 5802 5804 5805 5806 5807 5808
5818 5814 5811 5808 5805 5801 5798 5795 5792 5790 5787 5784 5782 5780 5778 5777 5776 5774 5774 5773 5773 5773 5773 5774 5774 5775 5776 5778 5779 5780 5782 5783 5785 5787 5789 5791 5793 5795 5797 5798 5799 5801 5802
5812 5808 5805 5801 5797 5793 5790 5786 5783 5779 5776 5773 5770 5768 5767 5765 5764 5763 5762 5762 5761 5761 5762 5762 5763 5764 5765 5767 5768 5770 5771 5773 5775 5778 5780 5782 5785 5787 5789 5791 5793 5794 5795
5805 5801 5797 5793 5789 5784 5780 5776 5772 5768 5764 5761 5758 5756 5753 5751 5750 5749 5748 5747 5747 5747 5748 5748 5749 5751 5752 5754 5756 5758 5759 5761 5764 5767 5769 5772 5775 5778 5780 5783 5785 5787 5788
5798 5794 5789 5784 5780 5775 5770 5765 5761 5756 5752 5747 5743 5740 5738 5735 5733 5732 5731 5730 5730 5731 5731 5732 5734 5735 5737 5739 5741 5744 5746 5749 5752 5754 5757 5760 5763 5766 5770 5773 5776 5779 5781
5790 5785 5780 5774 5769 5764 5758 5753 5748 5742 5738 5733 5728 5724 5721 5718 5716 5714 5712 5712 5711 5711 5712 5714 5715 5717 5720 5722 5725 5728 5731 5734 5737 5741 5744 5748 5751 5755 5758 5762 5766 5769 5772
5779 5774 5768 5762 5756 5750 5744 5738 5732 5726 5721 5716 5711 5706 5702 5699 5696 5694 5692 5691 5691 5691 5692 5693 5695 5698 5700 5703 5706 5710 5714 5718 5722 5725 5730 5734 5738 5742 5746 5750 5754 5758 5762
5768 5762 5755 5748 5741 5734 5727 5720 5714 5708 5702 5696 5691 5686 5682 5678 5675 5672 5670 5669 5669 5669 5670 5671 5673 5676 5679 5682 5686 5690 5694 5699 5704 5709 5713 5718 5723 5728 5732 5737 5742 5746 5751
5756 5749 5741 5733 5725 5718 5710 5703 5695 5688 5682 5675 5670 5665 5661 5657 5653 5651 5648 5647 5646 5646 5646 5648 5650 5653 5656 5660 5664 5669 5674 5679 5684 5690 5695 5701 5707 5713 5718 5723 5728 5734 5739
5744 5735 5727 5719 5711 5702 5694 5686 5678 5670 5663 5656 5650 5644 5640 5635 5632 5630 5627 5626 5625 5624 5624 5625 5628 5630 5634 5638 5642 5647 5652 5658 5664 5670 5676 5682 5689 5696 5703 5709 5715 5720 5726
5732 5723 5714 5705 5696 5687 5679 5670 5661 5653 5644 5637 5630 5624 5619 5615 5612 5609 5608 5606 5606 5606 5606 5607 5609 5610 5614 5617 5621 5626 5631 5636 5643 5649 5656 5663 5670 5678 5686 5693 5700 5706 5713
5721 5711 5702 5692 5683 5673 5664 5654 5645 5636 5626 5618 5611 5605 5599 5595 5592 5590 5589 5588 5588 5589 5589 5591 5592 5593 5596 5599 5602 5606 5611 5616 5622 5629 5636 5643 5652 5660 5669 5677 5685 5693 5700
5709 5700 5690 5680 5670 5659 5649 5638 5628 5619 5610 5601 5594 5587 5582 5577 5574 5572 5571 5571 5572 5572 5574 5575 5577 5578 5580 5582 5585 5589 5593 5598 5603 5609 5616 5624 5633 5641 5651 5660 5669 5678 5686
5699 5688 5678 5667 5656 5645 5634 5623 5613 5603 5593 5584 5576 5570 5564 5561 5558 5556 5555 5555 5556 5557 5559 5561 5563 5565 5567 5569 5571 5574 5578 5582 5586 5592 5598 5606 5615 5624 5633 5643 5653 5663 5673
5687 5676 5665 5654 5642 5630 5619 5608 5597 5587 5577 5568 5560 5553 5548 5545 5542 5540 5539 5540 5541 5543 5545 5547 5550 5552 5555 5557 5559 5562 5566 5569 5573 5577 5582 5589 5598 5607 5617 5628 5639 5649 5659
5676 5665 5653 5641 5629 5617 5605 5593 5582 5572 5562 5553 5545 5538 5533 5529 5527 5525 5525 5525 5527 5529 5532 5535 5538 5541 5543 5546 5549 5551 5555 5558 5561 5565 5569 5576 5583 5591 5600 5612 5624 5635 5646
5666 5654 5642 5629 5617 5604 5592 5580 5569 5558 5548 5539 5531 5524 5519 5515 5513 5511 5511 5512 5513 5516 5520 5524 5527 5530 5533 5536 5538 5541 5544 5548 5551 5554 5558 5563 5569 5577 5587 5598 5610 5621 5632
5657 5645 5633 5620 5607 5594 5581 5569 5557 5546 5536 5527 5518 5512 5506 5502 5500 5499 5499 5500 5502 5506 5509 5513 5517 5521 5524 5527 5529 5532 5535 5538 5541 5544 5547 5552 5558 5566 5575 5586 5597 5608 5619
5649 5637 5624 5612 5598 5585 5571 5559 5547 5535 5525 5517 5509 5502 5497 5493 5490 5488 5489 5490 5493 5497 5501 5505 5509 5512 5515 5518 5521 5524 5527 5529 5532 5535 5538 5542 5548 5555 5564 5574 5585 5596 5608
5642 5630 5618 5605 5592 5578 5564 5551 5538 5527 5517 5509 5501 5495 5490 5486 5483 5481 5482 5484 5486 5490 5494 5498 5501 5505 5508 5511 5514 5516 5519 5521 5523 5526 5529 5533 5538 5545 5554 5564 5575 5586 5599
5637 5625 5612 5600 5586 5572 5558 5545 5532 5521 5511 5503 5496 5490 5485 5482 5479 5478 5478 5479 5482 5484 5488 5492 5495 5498 5502 5504 5507 5509 5511 5513 5516 5518 5521 5525 5530 5537 5545 5555 5566 5578 5591
5633 5621 5608 5595 5582 5568 5555 5541 5529 5518 5508 5500 5493 5487 5483 5480 5478 5476 5476 5477 5479 5481 5484 5487 5490 5493 5496 5498 5501 5503 5505 5507 5509 5511 5514 5518 5523 5530 5539 5549 5560 5572 5584